Pineville, WV

8:40 PM EST on December 06, 2019 (GMT -0500)
Pineville

Weather History for KI16 - October, 2019

Change the Weather History Date:

Thursday, October 31, 2019

  Actual Average (WUND) Record (WUND)
Temperature  
Mean Temperature 58 °F -  
Max Temperature 81 °F - - (-1)
Min Temperature 36 °F - - (-1)
Degree Days  
Heating Degree Days 6    
Growing Degree Days 8 (Base 50)    
Moisture  
Dew Point 55 °F    
Average Humidity 90    
Maximum Humidity 98    
Minimum Humidity 56    
Precipitation  
Precipitation 0.00 in - - ()
Sea Level Pressure  
Sea Level Pressure 29.90 in    
Wind  
Wind Speed - ()    
Max Wind Speed -    
Max Gust Speed -    
Visibility 8.7 miles    
Events Rain    
Averages and records for this station are not official NWS values.
T = Trace of Precipitation, MM = Missing Value Source: Averaged Metar Reports

Daily Weather History Graph

Daily Weather History Graph

Search for Another Location

Airport or City:

Astronomy

Oct. 31, 2019 Rise Set
Actual Time 7:50 AM EDT 6:29 PM EDT
Civil Twilight 7:22 AM EDT 6:56 PM EDT
Nautical Twilight 6:52 AM EDT 7:27 PM EDT
Astronomical Twilight 6:21 AM EDT 7:57 PM EDT
Moon 11:33 AM EDT (10/31) 9:27 PM EDT (10/31)
Length of Visible Light 11h 33m
Length of Day
10h 39m
Waxing Crescent, 15% of the Moon is Illuminated
Oct 31
Waxing Crescent
Nov 4
First Quarter
Nov 12
Full
Nov 19
Last Quarter
Nov 26
New

Hourly Weather History & Observations

Time (EDT) Temp. Heat Index Dew Point Humidity Pressure Visibility Wind Dir Wind Speed Gust Speed Precip Events Conditions
12:15 AM 61.5 °F - 60.8 °F 97% 29.99 in 7.0 mi North - - N/A   Mostly Cloudy
12:55 AM 61.9 °F - 61.2 °F 97% 29.99 in 10.0 mi North - - N/A   Mostly Cloudy
1:15 AM 61.9 °F - 61.2 °F 97% 29.99 in 10.0 mi North - - N/A   Overcast
1:35 AM 61.9 °F - 61.2 °F 97% 29.98 in 10.0 mi North - - N/A   Overcast
1:55 AM 62.4 °F - 61.7 °F 97% 29.98 in 10.0 mi North - - N/A   Overcast
2:15 AM 62.4 °F - 61.7 °F 97% 29.97 in 10.0 mi North - - N/A   Overcast
2:35 AM 62.6 °F - 61.9 °F 97% 29.97 in 10.0 mi North - - N/A   Overcast
2:55 AM 62.6 °F - 61.7 °F 97% 29.96 in 10.0 mi North - - N/A   Overcast
3:15 AM 62.4 °F - 61.7 °F 97% 29.94 in 4.0 mi North - - N/A   Mostly Cloudy
3:35 AM 61.9 °F - 61.2 °F 97% 29.94 in 7.0 mi North - - N/A   Scattered Clouds
3:55 AM 61.0 °F - 60.3 °F 97% 29.93 in 4.0 mi North - - N/A   Scattered Clouds
4:15 AM 61.7 °F - 60.8 °F 97% 29.93 in 10.0 mi North - - N/A   Mostly Cloudy
4:35 AM 61.7 °F - 60.8 °F 97% 29.92 in 10.0 mi North - - N/A   Overcast
4:55 AM 61.7 °F - 60.8 °F 97% 29.91 in 10.0 mi North - - N/A   Overcast
5:15 AM 61.7 °F - 61.0 °F 97% 29.90 in 10.0 mi North - - N/A   Overcast
5:35 AM 61.9 °F - 61.2 °F 97% 29.90 in 7.0 mi North - - N/A   Mostly Cloudy
5:55 AM 61.5 °F - 60.8 °F 97% 29.89 in 7.0 mi North - - N/A   Scattered Clouds
6:15 AM 61.9 °F - 61.2 °F 97% 29.89 in 10.0 mi North - - N/A   Clear
6:35 AM 61.7 °F - 60.8 °F 97% 29.89 in 10.0 mi North - - N/A   Scattered Clouds
6:55 AM 61.9 °F - 61.2 °F 97% 29.88 in 10.0 mi North - - N/A   Scattered Clouds
7:15 AM 61.7 °F - 61.0 °F 97% 29.87 in 10.0 mi North - - N/A   Mostly Cloudy
7:35 AM 61.7 °F - 61.0 °F 97% 29.86 in 10.0 mi North - - N/A   Mostly Cloudy
7:55 AM 61.9 °F - 61.2 °F 97% 29.85 in 10.0 mi North - - N/A   Scattered Clouds
8:15 AM 62.1 °F - 61.3 °F 97% 29.84 in 10.0 mi North - - N/A   Clear
8:35 AM 62.6 °F - 61.9 °F 97% 29.83 in 10.0 mi North - - N/A   Clear
8:55 AM 62.8 °F - 62.1 °F 97% 29.83 in 10.0 mi North - - N/A   Clear
9:15 AM 63.9 °F - 63.1 °F 97% 29.82 in 10.0 mi North - - N/A   Clear
9:35 AM 64.2 °F - 63.5 °F 98% 29.82 in 10.0 mi North - - N/A   Scattered Clouds
9:55 AM 65.3 °F - 64.6 °F 98% 29.83 in 10.0 mi North - - N/A Rain Light Rain
10:15 AM 65.3 °F - 64.6 °F 98% 29.82 in 10.0 mi North - - N/A Rain Light Rain
10:35 AM 66.4 °F - 65.7 °F 98% 29.80 in 7.0 mi North - - N/A Rain Light Rain
10:55 AM 66.9 °F - 66.0 °F 97% 29.78 in 10.0 mi North - - N/A   Scattered Clouds
11:15 AM 68.9 °F - 67.8 °F 96% 29.76 in 10.0 mi North - - N/A Rain Light Rain
11:35 AM 71.2 °F - 67.8 °F 89% 29.76 in 10.0 mi North - - N/A   Scattered Clouds
11:55 AM 72.9 °F - 67.1 °F 82% 29.74 in 10.0 mi North - - N/A   Clear
12:15 PM 73.0 °F - 68.2 °F 85% 29.73 in 10.0 mi North - - N/A   Clear
12:35 PM 76.5 °F - 67.1 °F 73% 29.72 in 10.0 mi North - - N/A   Scattered Clouds
12:55 PM 76.1 °F - 67.6 °F 75% 29.70 in 10.0 mi North - - N/A   Scattered Clouds
1:15 PM 80.6 °F 82.5 °F 65.5 °F 60% 29.68 in 10.0 mi North - - N/A   Mostly Cloudy
1:35 PM 81.7 °F 83.3 °F 64.6 °F 56% 29.64 in 10.0 mi North - - N/A   Overcast
1:55 PM 69.4 °F - 64.2 °F 83% 29.71 in - North - - N/A   Unknown
2:15 PM 65.1 °F - 62.1 °F 90% 29.73 in 2.5 mi North - - N/A Rain Heavy Rain
2:35 PM 64.4 °F - 62.2 °F 93% 29.71 in 3.0 mi North - - N/A Rain Heavy Rain
2:55 PM 64.4 °F - 62.6 °F 94% 29.72 in 7.0 mi North - - N/A Rain Light Rain
3:15 PM 64.0 °F - 62.1 °F 93% 29.71 in 4.0 mi North - - N/A Rain Heavy Rain
3:35 PM 62.8 °F - 60.4 °F 92% 29.76 in 10.0 mi North - - N/A Rain Rain
3:55 PM 60.8 °F - 58.5 °F 92% 29.78 in 3.0 mi North - - N/A Rain Rain
4:15 PM 58.5 °F - 55.8 °F 91% 29.80 in 4.0 mi North - - N/A Rain Heavy Rain
4:35 PM 55.8 °F - 52.9 °F 90% 29.82 in 5.0 mi North - - N/A Rain Heavy Rain
4:55 PM 54.5 °F - 52.0 °F 91% 29.83 in 5.0 mi North - - N/A Rain Rain
5:15 PM 54.0 °F - 51.4 °F 91% 29.84 in 7.0 mi North - - N/A Rain Rain
5:35 PM 53.1 °F - 50.9 °F 92% 29.85 in 4.0 mi North - - N/A Rain Heavy Rain
5:55 PM 51.6 °F - 49.1 °F 91% 29.88 in 7.0 mi North - - N/A   Drizzle
6:15 PM 50.5 °F - 47.3 °F 89% 29.90 in 10.0 mi North - - N/A Rain Rain
6:35 PM 49.3 °F - 45.9 °F 88% 29.93 in 10.0 mi North - - N/A Rain Rain
6:55 PM 48.2 °F - 44.6 °F 87% 29.96 in 10.0 mi North - - N/A   Overcast
7:15 PM 46.9 °F - 42.3 °F 84% 29.99 in 10.0 mi North - - N/A   Overcast
7:35 PM 45.3 °F - 38.5 °F 77% 30.02 in 10.0 mi North - - N/A   Overcast
7:55 PM 44.4 °F - 37.9 °F 78% 30.05 in 10.0 mi North - - N/A   Overcast
8:15 PM 42.8 °F - 36.5 °F 78% 30.07 in 10.0 mi North - - N/A   Overcast
8:35 PM 42.4 °F - 36.9 °F 81% 30.09 in 10.0 mi North - - N/A   Overcast
8:55 PM 41.2 °F - 35.8 °F 81% 30.10 in 10.0 mi North - - N/A   Overcast
9:15 PM 39.9 °F - 35.2 °F 83% 30.12 in 10.0 mi North - - N/A   Overcast
9:35 PM 39.0 °F - 35.4 °F 87% 30.14 in 5.0 mi North - - N/A   Overcast
9:55 PM 37.4 °F - 33.8 °F 87% 30.15 in 10.0 mi North - - N/A   Overcast
10:15 PM 36.7 °F - 32.2 °F 84% 30.16 in 10.0 mi North - - N/A   Overcast
10:35 PM 37.0 °F - 32.0 °F 82% 30.17 in 10.0 mi North - - N/A   Overcast
10:55 PM 37.0 °F - 32.0 °F 82% 30.17 in 10.0 mi North - - N/A   Overcast
11:15 PM 36.9 °F - 32.0 °F 83% 30.16 in 10.0 mi North - - N/A   Unknown
11:35 PM 36.7 °F - 32.0 °F 83% 30.17 in 10.0 mi North - - N/A   Unknown
11:55 PM 36.9 °F - 32.0 °F 83% 30.17 in 10.0 mi North - - N/A   Unknown